Simultaneous Nadir Overpasses (SNOs) Predictions

Prediction of SNOs between AQUA and NOAA-19 Satellite Orbit:

Table of predicted SNOs for the next 14.0 days since TLE Epoch: 8/21/2015
Index Date (AQUA) Time (AQUA) Lat,Lon (AQUA) SZA (AQUA ) Date (NOAA-19) Time (NOAA-19) Lat,Lon (NOAA-19) SZA (NOAA-19 ) Distance(km) Time Diff (sec)
1 08/22/2015 18:14:06 -80.36, 52.89 109.65 08/22/2015 18:13:02 -80.35, 53.04 109.64 2.94 64
2 08/22/2015 19:03:30 80.28,-138.73 70.23 08/22/2015 19:03:55 80.28,-138.67 70.22 1.09 25
3 08/24/2015 23:47:48 80.34, 149.65 71.06 08/24/2015 23:47:16 80.35, 149.53 71.10 2.43 32
4 08/25/2015 00:37:12 -80.25, -41.89 109.08 08/25/2015 00:38:18 -80.25, -41.86 109.11 0.56 66
5 08/27/2015 05:21:30 -80.31,-113.53 108.23 08/27/2015 05:21:38 -80.30,-113.41 108.25 2.29 8
6 08/29/2015 10:05:48 -80.37, 174.78 107.36 08/29/2015 10:04:59 -80.38, 174.66 107.33 2.37 49
7 08/29/2015 10:55:12 80.30, -16.90 72.53 08/29/2015 10:55:52 80.30, -16.87 72.51 0.88 40
8 08/31/2015 15:39:29 80.34, -88.35 73.36 08/31/2015 15:39:12 80.35, -88.41 73.38 1.45 17
9 09/02/2015 20:24:06 80.97,-166.48 75.34 09/02/2015 20:22:52 80.76,-166.88 75.26 24.18 74




NCC Satellite Simultaneous Nadir Overpasses (SNOs) Prediction Service
